Regional Weather Roundup
Issued by NWS

Home | Current Version | Previous Version | Text Only | Print | Product List | Glossary On
Versions: 1 2 3 4 5 6 7 8 9 10 11 12 13 14 15 16 17 18 19 20 21 22 23 24 25 26 27 28 29 30 31 32 33 34 35 36 37 38 39 40 41 42 43 44 45 46 47 48 49 50
000
ASUS43 KOAX 190810
RWRNE

WEATHER ROUNDUP FOR NEBRASKA
NATIONAL WEATHER SERVICE OMAHA NE
300 AM CDT SAT AUG 19 2017

NOTES: SATELLITE DATA IS BEING USED TO AUGMENT CLOUD COVER ABOVE
       12000 FEET.
       "FAIR" INDICATES FEW OR NO CLOUDS BELOW 12,000 FEET WITH NO
       SIGNIFICANT WEATHER AND/OR OBSTRUCTIONS TO VISIBILITY.


NEZ001>004-019>022-054>056-190900-
NEBRASKA PANHANDLE

CITY           SKY/WX    TMP DP  RH WIND       PRES   REMARKS
SCOTTSBLUFF    CLEAR     64  50  60 E8        30.01F
ALLIANCE       CLEAR     58  50  75 S8        30.02F
CHADRON        CLEAR     69  48  47 S15       29.94F
GORDON         FAIR      62  54  74 CALM      30.01F
KIMBALL        CLEAR     63  51  63 S10       30.09F
SIDNEY         CLEAR     60  50  69 S8        30.08F
$$

NEZ057>060-069>072-079>082-190900-
SOUTHWEST NEBRASKA

CITY           SKY/WX    TMP DP  RH WIND       PRES   REMARKS
NORTH PLATTE   CLEAR     60  57  89 E7        30.03F
IMPERIAL       CLEAR     62  55  77 S5        30.05S
LEXINGTON      CLEAR     61  59  93 CALM      30.03S
MCCOOK         CLEAR     62  57  83 CALM      30.01F
OGALLALA       CLEAR     65  55  69 SW6       30.04S
$$

NEZ005>010-023>029-035>040-094-190900-
NORTH CENTRAL NEBRASKA

CITY           SKY/WX    TMP DP  RH WIND       PRES   REMARKS
VALENTINE      CLEAR     63  53  70 S7        30.01F
AINSWORTH      CLEAR     61  57  88 S8        30.02F
BROKEN BOW     CLEAR     59  56  89 CALM      30.02F
O`NEILL        CLEAR     58  58 100 SW6       30.01S FOG
ORD            CLEAR     58  55  90 CALM      29.99F
THEDFORD       CLEAR     61  56  85 SE3       30.04S
$$

NEZ041-046>049-061>064-073>077-083>087-190900-
SOUTH CENTRAL NEBRASKA

CITY           SKY/WX    TMP DP  RH WIND       PRES   REMARKS
GRAND ISLAND   CLEAR     63  61  93 CALM      30.00F
AURORA         CLEAR     63  61  94 NE6       29.99F
HASTINGS       CLEAR     65  60  84 CALM      30.01F
HEBRON         CLEAR     63  62  94 CALM      29.98S
HOLDREGE       CLEAR     62  59  90 NE5       30.02S
KEARNEY        CLEAR     66  61  84 CALM      30.02S
YORK           CLEAR     63  63 100 CALM      29.99F
$$

NEZ011>018-030>034-042>045-190900-
NORTHEAST NEBRASKA

CITY           SKY/WX    TMP DP  RH WIND       PRES   REMARKS
NORFOLK        CLEAR     57  56  96 CALM      29.98S
ALBION         CLEAR     58  56  96 NW3       30.00F
BLAIR          CLEAR     64  59  86 N7        29.95F
COLUMBUS       CLEAR     60  58  92 CALM      29.98F
FREMONT        CLEAR     62  60  94 W6        29.96F
TEKAMAH        CLEAR     61  58  90 W6        29.95R
WAYNE          CLEAR     55  52  91 S6        29.97R
$$

NEZ050>053-065>068-078-088>093-190900-
SOUTHEAST NEBRASKA

CITY           SKY/WX    TMP DP  RH WIND       PRES   REMARKS
LINCOLN        CLEAR     69  63  81 CALM      29.97S
OMAHA EPPLEY   PTCLDY    64  60  87 N5        29.94S
BEATRICE       CLEAR     64  63  94 CALM      29.97S
FALLS CITY     CLEAR     66  64  93 NW3       29.93S
NEBRASKA CITY  CLEAR     68  68 100 N6        29.94S
PLATTSMOUTH    CLEAR     66  63  89 NW3       29.94F
$$

NEZ044-045-051>053-067-190900-
OMAHA AREA

CITY           SKY/WX    TMP DP  RH WIND       PRES   REMARKS
OMAHA EPPLEY   PTCLDY    64  60  87 N5        29.94S
BLAIR          CLEAR     64  59  86 N7        29.95F
FREMONT        CLEAR     62  60  94 W6        29.96F
MILLARD        CLEAR     71  61  72 NW6       29.93F
OFFUTT AFB     CLEAR     65  60  83 CALM      29.92F
PLATTSMOUTH    CLEAR     66  63  89 NW3       29.94F
WAHOO          FAIR      63  62  94 N6        29.95F
$$




USA.gov is the U.S. government's official web portal to all federal, state and local government web resources and services.